Flight Track Log - Related Links

Times and Time Zones

All times are in EDT time to prevent confusion due to time zone crossing. See the N431EH flight status page for this flight to view local times or setup timezone preferences in your user account.

Time Position Orientation Groundspeed Altitude Reporting Facility
EDT Latitude Longitude Course Direction KTS MPH feet Rate Location/Type
08:52AM 40.7933 -111.9621 180° South 86 99 3,900  Level FlightAware ADS-B
08:52AM 40.7789 -111.9620 179° South 165 190 4,300 2,195 Climbing FlightAware ADS-B
08:52AM 40.7599 -111.9673 210° Southwest 208 239 5,400 3,250 Climbing FlightAware ADS-B
08:52AM 40.7574 -111.9699 217° Southwest 219 252 5,600 3,600 Climbing FlightAware ADS-B (KBTF)
08:53AM 40.7487 -111.9891 254° West 244 281 6,600 3,714 Climbing FlightAware ADS-B
08:53AM 40.7478 -111.9949 263° West 246 283 6,900 4,105 Climbing FlightAware ADS-B (KBTF)
08:53AM 40.7471 -112.0101 269° West 252 290 7,900 4,167 Climbing FlightAware ADS-B
08:53AM 40.7468 -112.0389 279° West 252 290 9,400 4,258 Climbing FlightAware ADS-B
08:53AM 40.7500 -112.0615 293° West 252 290 10,100 4,737 Climbing FlightAware ADS-B
08:54AM 40.7571 -112.0771 310° West 252 290 10,900 4,286 Climbing FlightAware ADS-B
08:54AM 40.7753 -112.0923 345° North 250 288 12,100 3,750 Climbing FlightAware ADS-B
08:54AM 40.7812 -112.0938 351° North 261 300 12,400 3,429 Climbing FlightAware ADS-B (KBTF)
08:54AM 40.7922 -112.0933 10° North 272 313 12,900 3,333 Climbing FlightAware ADS-B
08:54AM 40.8001 -112.0902 26° Northeast 285 328 13,400 2,842 Climbing FlightAware ADS-B
08:54AM 40.8137 -112.0789 41° Northeast 300 345 13,800 2,667 Climbing FlightAware ADS-B
08:55AM 40.8218 -112.0669 53° Northeast 315 362 14,200 2,864 Climbing FlightAware ADS-B
08:55AM 40.8418 -112.0307 58° Northeast 351 404 15,900 2,909 Climbing FlightAware ADS-B
08:56AM 40.8788 -111.9514 59° Northeast 367 422 17,400 3,100 Climbing FlightAware ADS-B
08:56AM 40.9061 -111.8913 59° Northeast 381 438 19,000 3,049 Climbing FlightAware ADS-B
08:57AM 40.9303 -111.8381 59° Northeast 389 448 20,500 2,927 Climbing FlightAware ADS-B
08:57AM 40.9444 -111.8071 60° Northeast 387 445 21,000 2,927 Climbing FlightAware ADS-B
08:57AM 40.9693 -111.7521 59° Northeast 393 452 22,500 3,064 Climbing FlightAware ADS-B
08:58AM 40.9855 -111.7166 59° Northeast 395 455 23,400 2,842 Climbing FlightAware ADS-B
08:58AM 41.0243 -111.6235 72° East 404 465 25,200 2,710 Climbing FlightAware ADS-B
08:59AM 41.0319 -111.5732 84° East 415 478 26,200 2,824 Climbing FlightAware ADS-B
08:59AM 41.0389 -111.4972 83° East 414 476 27,600 2,754 Climbing FlightAware ADS-B
09:00AM 41.0458 -111.4193 83° East 414 476 29,000 2,571 Climbing FlightAware ADS-B
09:00AM 41.0529 -111.3385 83° East 414 476 30,300 2,261 Climbing FlightAware ADS-B
09:01AM 41.0612 -111.2442 83° East 418 481 31,600 1,870 Climbing FlightAware ADS-B
09:01AM 41.0776 -111.1473 76° East 415 478 32,700 1,091 Climbing FlightAware ADS-B
09:02AM 41.0962 -111.0533 76° East 426 490 33,000 254 Climbing FlightAware ADS-B
09:03AM 41.1131 -110.9672 77° East 426 490 33,000  Level FlightAware ADS-B
09:03AM 41.1305 -110.8781 76° East 426 490 33,000  Level FlightAware ADS-B
09:04AM 41.1584 -110.7350 76° East 424 488 33,000  Level FlightAware ADS-B
09:07AM 41.2289 -110.3699 76° East 426 490 33,000  Level FlightAware ADS-B
09:08AM 41.2649 -110.1811 76° East 427 491 33,000  Level FlightAware ADS-B
09:09AM 41.2925 -110.0349 76° East 427 491 33,000  Level FlightAware ADS-B
09:10AM 41.3133 -109.9238 76° East 425 489 33,000  Level FlightAware ADS-B
09:11AM 41.3524 -109.7135 76° East 425 489 33,000  Level FlightAware ADS-B
09:12AM 41.3715 -109.6096 76° East 424 488 33,000 -298 Level FlightAware ADS-B
09:13AM 41.4087 -109.4072 77° East 423 487 32,400 -868 Descending FlightAware ADS-B
09:14AM 41.4249 -109.3171 77° East 430 495 30,800 -1,444 Descending FlightAware ADS-B
09:15AM 41.4679 -109.0777 77° East 431 496 29,200 -1,565 Descending FlightAware ADS-B
09:16AM 41.4883 -108.9635 77° East 426 490 27,800 -1,475 Descending FlightAware ADS-B
09:17AM 41.5251 -108.7558 77° East 418 481 26,200 -1,349 Descending FlightAware ADS-B
09:18AM 41.5489 -108.6186 77° East 419 482 24,900 -1,400 Descending Denver Center
09:19AM 41.5733 -108.4772 77° East 413 475 23,400 -1,525 Descending Denver Center
09:20AM 41.6017 -108.3136 77° East 410 472 21,800 -1,525 Descending Denver Center
09:21AM 41.6247 -108.1764 77° East 401 461 20,300 -1,475 Descending Denver Center
09:22AM 41.6475 -108.0422 77° East 393 452 18,800 -1,475 Descending Denver Center
09:23AM 41.6733 -107.8908 77° East 380 437 17,300 -1,512 Descending Denver Center
09:24AM 41.6944 -107.7617 78° East 378 435 15,700 -1,548 Descending Denver Center

Login

Don't have an account? Register now (free) for customized features, flight alerts, and more!